Terug naar catalogus

COSMOS 2535 DEB

LostPO
NORAD 45001·DEBRIS·🇷🇺 Russia

Gelanceerd Jul 10, 2019 vanaf Plesetsk Cosmodrome

Loading…

Volgende Passages (komende 24 uur)

TLE

VerouderdSource: Space-Track

Epoch: Jan 14, 2020, 09:02 UTC

1 45001U 19039S   20014.37681808 -.00287314  00000-0 -75713-1 0  9991
2 45001  97.0479  68.2233 0259038 316.8076  41.3049 14.32392761   481

Volg COSMOS 2535 DEB in realtime met AllMySat

Download on the App Store